Wind_Speed
37 38 38 38 37 35 34 33 32 31 30 28 26 24 21 20 20 20 19 19 18 18 17 18 18 17 17 16 17 18 18 17 16 15 14 13 13 12 12 12 12 12
35 37 38 38 37 36 35 33 32 31 30 28 27 24 22 21 20 21 20 20 19 18 18 19 19 19 18 18 18 19 19 18 17 16 15 14 13 13 13 12 12 12
34 36 38 38 37 36 34 33 32 31 30 29 27 26 24 22 21 20 20 20 20 19 19 20 20 20 19 19 19 19 20 19 18 17 16 15 14 14 13 12 13 12
34 35 36 37 36 35 34 34 33 32 30 29 28 27 25 24 22 20 19 20 20 19 20 21 21 21 20 20 20 20 21 20 19 18 18 17 15 15 13 13 13 13
34 33 34 35 35 35 34 34 33 32 31 30 29 28 27 25 23 21 20 19 18 19 21 22 22 21 21 21 21 21 21 21 20 19 19 18 17 16 14 14 14 14
36 34 34 34 34 35 34 34 33 32 31 30 29 29 28 27 25 23 21 19 18 19 21 22 22 21 21 22 22 22 22 22 21 21 20 19 18 17 16 16 16 15
37 36 34 34 34 34 34 34 33 33 32 31 30 30 29 28 27 25 23 21 20 20 21 22 22 21 21 21 22 23 22 22 22 22 22 20 19 18 17 17 17 17
38 37 36 35 34 33 33 33 33 33 33 32 32 31 30 30 28 26 24 23 22 22 22 22 22 22 22 22 22 23 23 23 23 23 22 21 20 20 19 18 18 18
39 38 37 36 35 34 32 32 32 33 33 33 32 32 31 31 29 28 26 25 25 24 24 24 24 23 23 23 23 23 24 24 23 23 23 22 21 20 19 19 19 20
41 39 38 37 36 34 33 32 32 33 33 33 32 32 31 31 30 29 28 27 27 26 26 25 25 25 24 24 24 24 24 24 24 23 23 23 22 20 20 19 20 20
42 41 40 39 37 35 33 32 32 33 32 32 32 32 32 31 31 30 30 29 29 28 27 27 27 26 26 26 25 25 25 24 24 24 23 23 22 21 20 20 20 20
43 42 41 39 37 34 33 32 32 32 32 32 32 32 32 32 31 31 31 31 30 29 29 29 28 28 28 27 27 26 26 26 25 25 25 25 24 23 23 22 22 21
44 42 40 38 36 33 32 32 31 31 30 30 31 31 32 32 32 32 32 31 31 31 30 30 30 30 29 29 28 28 27 27 27 27 27 27 26 26 25 25 25 24
43 42 40 38 35 34 33 32 31 30 30 29 30 31 32 32 32 32 32 32 32 31 31 31 31 31 31 30 29 28 28 28 28 28 28 28 28 28 28 28 28 27
43 42 41 39 37 36 34 33 31 30 29 29 29 30 31 32 33 32 32 32 32 32 32 32 32 32 32 31 30 29 29 29 29 29 29 29 29 29 29 29 29 29
43 42 41 40 39 37 35 33 32 30 30 29 29 30 31 32 33 33 34 34 33 33 33 33 33 33 32 31 31 31 30 30 30 30 30 30 30 31 31 31 30 30
44 43 42 41 39 38 36 34 33 32 31 30 29 29 30 31 33 34 35 34 34 34 34 34 34 33 32 32 31 31 31 30 31 31 30 31 31 32 32 32 31 31
44 43 42 41 39 38 36 35 34 33 32 31 30 29 29 30 32 34 34 34 35 35 35 35 35 33 33 32 32 32 31 31 31 31 32 32 32 33 33 33 33 32
44 43 42 41 39 38 36 35 35 35 34 33 32 30 29 30 32 33 34 34 35 36 36 36 35 34 33 33 32 32 31 31 32 32 32 33 33 33 33 33 33 32
43 42 41 40 38 37 36 36 36 35 34 34 33 32 32 31 31 32 33 34 35 35 36 36 36 34 33 33 32 32 31 32 32 32 33 33 33 33 33 33 33 32
42 41 40 39 38 37 37 37 36 35 34 33 33 33 33 32 31 32 33 33 34 34 35 36 36 34 33 32 32 32 31 32 32 32 32 32 32 32 32 32 32 32
40 39 38 38 37 37 38 37 36 35 34 33 33 33 32 32 32 32 32 33 33 33 34 35 35 33 33 32 32 31 32 32 32 32 32 32 31 31 31 31 31 31
38 37 37 36 37 38 38 36 35 34 32 32 33 33 33 33 32 32 32 32 33 33 34 34 34 32 32 31 31 31 32 32 32 32 31 31 30 29 29 29 29 29
35 35 34 34 35 35 34 33 32 31 30 30 31 32 31 30 29 29 30 30 31 32 32 32 32 30 30 30 29 30 31 31 31 31 30 30 29 28 28 28 28 28
32 32 31 32 32 32 30 29 29 28 28 29 30 30 29 28 28 29 29 29 29 29 29 30 29 27 27 28 28 29 30 29 29 29 30 29 27 27 27 27 27 26
31 31 30 30 30 28 27 27 27 27 28 29 30 29 28 28 29 29 29 28 27 27 27 27 26 24 24 24 25 26 26 26 27 28 28 27 26 26 26 26 26 26
Wind_Direction
229 230 230 231 232 232 233 233 233 232 233 235 236 238 238 238 236 235 235 233 232 233 234 237 238 239 240 240 242 246 249 251 252 251 250 248 248 248 251 253 254 255
230 230 231 232 232 233 233 233 233 233 234 235 237 239 241 241 241 240 240 241 239 237 235 236 237 238 240 240 243 246 249 252 253 252 250 249 249 250 253 256 257 258
230 231 231 232 232 232 233 233 234 234 235 235 237 240 242 242 244 244 244 244 243 240 236 235 235 236 238 240 242 246 249 253 254 253 252 252 252 253 255 257 258 258
229 230 231 232 233 233 234 235 235 235 235 235 235 238 241 242 243 244 244 243 243 240 235 233 233 233 235 238 241 244 248 252 254 253 253 252 252 253 254 257 258 258
229 231 231 233 234 235 237 237 236 235 235 235 234 236 238 240 241 242 242 242 240 236 232 231 231 231 232 236 239 242 245 249 252 252 252 252 252 253 254 255 257 257
230 231 232 233 234 236 237 238 237 237 236 236 235 235 236 238 240 240 240 240 238 234 231 230 231 230 230 233 238 241 243 246 250 252 253 253 252 253 254 255 257 257
230 231 232 234 235 237 239 239 239 239 238 238 237 236 236 237 239 239 239 238 236 234 232 231 231 230 230 233 236 240 241 244 247 250 252 254 254 254 255 256 258 259
231 231 232 234 235 238 239 240 240 240 240 240 240 238 237 237 239 240 239 237 236 234 233 233 232 231 232 234 237 240 242 243 245 248 251 254 255 256 256 256 258 259
231 232 233 234 236 238 239 240 240 240 240 241 240 240 239 238 239 240 239 237 236 235 235 235 235 236 236 237 239 240 242 244 245 248 251 253 255 257 257 257 258 259
231 232 233 234 235 237 239 240 240 241 241 241 242 242 242 240 239 239 239 238 237 235 235 236 237 238 239 239 240 240 242 244 246 248 251 253 254 256 257 258 259 259
230 232 233 234 235 237 238 240 241 241 242 242 243 243 243 241 240 239 238 237 236 235 235 236 237 239 241 240 240 240 242 243 245 248 250 252 254 255 257 258 259 260
231 231 232 234 235 237 238 239 240 241 242 242 243 243 243 243 241 239 238 237 236 235 236 237 239 241 242 243 242 242 243 244 246 247 249 251 253 254 256 258 259 261
231 232 233 233 234 235 237 238 239 240 241 242 242 243 244 243 242 241 239 238 238 238 239 240 241 243 244 245 246 245 246 246 247 248 250 251 253 254 255 257 259 262
231 232 233 233 234 234 235 236 237 239 240 241 243 243 243 243 242 242 240 240 241 241 242 243 244 245 245 246 246 246 247 248 249 251 252 253 254 255 257 258 260 262
231 232 233 234 234 235 235 235 236 237 238 240 242 242 242 242 242 242 242 242 243 244 245 246 246 246 245 245 246 245 246 248 251 253 255 257 258 259 259 260 261 262
231 232 233 234 234 234 235 235 236 236 237 239 240 241 241 242 242 242 243 243 244 245 246 247 247 246 245 245 246 246 248 250 252 254 256 258 260 262 263 263 264 265
230 231 232 234 234 235 236 236 237 237 238 238 240 241 241 242 243 243 243 243 244 245 246 247 247 246 246 246 247 248 249 251 253 255 257 259 261 263 264 265 267 268
230 231 232 234 235 235 236 237 238 239 239 239 240 240 241 242 243 242 242 242 244 245 245 246 246 246 246 248 248 249 251 253 255 257 258 260 262 264 265 267 269 271
230 232 233 234 235 236 236 238 239 240 240 239 239 239 240 242 242 242 241 241 243 243 244 246 247 246 247 249 250 251 252 253 255 257 259 262 263 265 268 269 271 273
230 232 234 235 236 236 237 238 239 240 240 240 240 240 240 242 242 241 241 241 242 242 243 246 247 247 248 250 251 252 253 254 256 258 261 263 265 267 269 270 272 274
231 233 234 235 236 236 237 238 239 240 240 241 241 241 241 241 241 242 242 242 243 243 244 245 246 246 248 249 250 252 254 256 258 259 261 263 265 267 269 270 272 274
231 233 234 236 236 236 237 238 239 239 240 241 242 242 243 243 243 243 243 243 244 245 246 246 245 246 247 249 250 253 255 257 259 260 262 263 264 266 267 270 272 273
232 233 235 236 236 237 238 239 239 240 240 241 241 242 243 243 243 243 243 243 244 245 246 246 245 246 247 249 251 253 256 258 259 261 263 263 264 265 267 269 270 272
234 235 236 236 236 237 239 239 240 240 239 240 241 242 243 243 244 245 245 245 245 245 245 246 246 246 247 249 252 254 257 258 260 262 263 264 265 266 267 268 270 272
235 235 236 236 237 237 239 239 239 239 239 240 241 242 244 245 246 247 247 247 247 247 248 249 249 248 248 250 252 255 257 259 260 262 263 264 266 267 268 270 271 273
236 236 236 237 237 239 239 239 240 240 241 242 243 243 245 246 247 248 249 249 250 250 251 252 253 251 251 252 254 256 257 259 260 261 263 265 268 270 272 273 274 276
Height
1548 1551 1553 1555 1558 1560 1563 1565 1568 1570 1572 1574 1576 1578 1580 1582 1584 1585 1586 1588 1589 1590 1590 1591 1592 1593 1594 1594 1595 1596 1597 1597 1598 1599 1599 1599 1600 1600 1601 1602 1602 1602
1546 1548 1551 1553 1555 1558 1560 1563 1565 1568 1570 1572 1574 1576 1578 1580 1582 1583 1585 1586 1587 1588 1589 1590 1590 1591 1592 1593 1594 1594 1595 1596 1597 1598 1598 1598 1599 1599 1600 1600 1601 1601
1543 1546 1548 1550 1552 1555 1558 1561 1563 1565 1568 1570 1572 1575 1576 1578 1580 1581 1583 1584 1585 1587 1587 1588 1589 1590 1590 1591 1592 1593 1593 1594 1595 1596 1597 1597 1598 1598 1599 1599 1600 1600
1540 1543 1545 1548 1550 1553 1556 1558 1561 1563 1566 1568 1570 1572 1574 1576 1578 1579 1581 1582 1583 1584 1585 1586 1587 1588 1589 1590 1590 1591 1592 1593 1594 1595 1595 1596 1597 1597 1598 1598 1598 1599
1538 1541 1543 1546 1548 1551 1553 1556 1558 1560 1563 1565 1568 1570 1572 1574 1575 1577 1579 1580 1581 1582 1583 1584 1585 1586 1587 1588 1589 1589 1590 1591 1592 1593 1594 1594 1595 1596 1596 1597 1597 1597
1535 1538 1541 1544 1546 1549 1551 1553 1556 1558 1560 1563 1565 1567 1569 1571 1573 1575 1576 1578 1579 1580 1581 1582 1583 1584 1585 1586 1587 1588 1589 1590 1591 1591 1592 1593 1594 1594 1595 1595 1595 1596
1533 1535 1538 1541 1543 1546 1548 1550 1553 1555 1558 1560 1562 1564 1567 1568 1570 1572 1574 1575 1576 1577 1579 1580 1581 1582 1583 1584 1585 1586 1587 1588 1589 1590 1590 1591 1592 1593 1593 1594 1594 1594
1530 1533 1536 1538 1541 1543 1545 1548 1550 1552 1555 1557 1559 1562 1564 1566 1568 1570 1571 1573 1574 1575 1576 1578 1579 1580 1581 1582 1583 1584 1585 1586 1587 1588 1589 1589 1590 1591 1592 1592 1593 1592
1527 1530 1533 1535 1538 1540 1542 1545 1547 1550 1552 1554 1557 1559 1561 1563 1565 1567 1569 1570 1571 1572 1573 1575 1576 1578 1579 1580 1581 1582 1583 1584 1585 1586 1587 1588 1588 1589 1590 1591 1591 1591
1524 1527 1530 1532 1534 1537 1539 1542 1544 1547 1549 1552 1554 1556 1558 1560 1562 1564 1565 1567 1568 1569 1570 1572 1574 1575 1576 1577 1578 1580 1581 1582 1583 1584 1585 1586 1586 1587 1588 1589 1589 1589
1520 1523 1526 1528 1531 1534 1536 1539 1541 1544 1546 1549 1551 1553 1555 1557 1559 1560 1562 1563 1564 1566 1568 1569 1571 1572 1574 1575 1576 1577 1578 1580 1581 1582 1583 1583 1584 1585 1586 1586 1586 1587
1517 1520 1522 1525 1528 1531 1534 1536 1538 1541 1543 1545 1548 1550 1552 1554 1555 1557 1558 1560 1561 1563 1565 1566 1568 1570 1571 1572 1573 1575 1576 1577 1578 1579 1580 1581 1582 1583 1583 1584 1584 1584
1513 1516 1519 1522 1525 1528 1531 1533 1535 1537 1540 1542 1544 1546 1548 1550 1552 1553 1555 1557 1558 1560 1561 1563 1565 1566 1568 1569 1570 1572 1573 1574 1575 1576 1577 1578 1579 1580 1581 1581 1581 1582
1510 1513 1516 1519 1522 1525 1527 1530 1532 1534 1536 1539 1541 1543 1545 1547 1548 1550 1552 1554 1555 1557 1558 1560 1561 1563 1564 1566 1567 1569 1570 1571 1572 1573 1574 1575 1576 1577 1578 1579 1579 1579
1507 1510 1513 1516 1519 1521 1524 1526 1528 1531 1533 1535 1537 1539 1541 1543 1545 1547 1549 1550 1551 1553 1554 1556 1557 1559 1560 1562 1564 1565 1567 1568 1569 1570 1571 1572 1573 1574 1575 1575 1576 1576
1503 1507 1510 1513 1515 1518 1520 1523 1525 1527 1530 1531 1533 1535 1538 1540 1541 1543 1545 1546 1548 1549 1551 1552 1553 1555 1557 1559 1560 1562 1563 1565 1566 1567 1568 1569 1570 1570 1571 1572 1572 1573
1500 1503 1506 1509 1512 1514 1517 1519 1522 1524 1526 1528 1530 1532 1534 1536 1537 1539 1540 1542 1543 1545 1546 1547 1549 1551 1553 1555 1557 1559 1560 1562 1563 1564 1565 1566 1566 1567 1567 1568 1569 1570
1497 1500 1503 1506 1508 1511 1513 1516 1518 1520 1522 1524 1526 1528 1530 1532 1533 1535 1536 1538 1539 1541 1542 1543 1545 1547 1549 1551 1553 1555 1557 1558 1559 1560 1561 1562 1563 1563 1564 1565 1565 1566
1494 1497 1500 1502 1505 1507 1510 1513 1515 1516 1518 1520 1522 1524 1526 1527 1529 1531 1532 1534 1535 1536 1538 1539 1541 1543 1546 1548 1549 1551 1553 1554 1555 1556 1557 1558 1559 1559 1560 1561 1561 1562
1491 1493 1496 1499 1501 1504 1507 1508 1510 1512 1514 1517 1519 1520 1522 1523 1525 1527 1528 1529 1531 1532 1534 1535 1537 1539 1542 1544 1546 1547 1549 1550 1551 1552 1553 1554 1555 1555 1556 1557 1557 1558
1487 1490 1492 1495 1498 1500 1502 1504 1506 1508 1510 1513 1515 1516 1517 1519 1521 1522 1524 1525 1527 1529 1530 1531 1532 1535 1538 1540 1541 1543 1545 1546 1547 1548 1549 1549 1550 1551 1552 1552 1553 1554
1483 1486 1489 1491 1494 1496 1498 1500 1502 1504 1507 1509 1510 1512 1514 1515 1516 1518 1520 1521 1523 1525 1526 1527 1529 1532 1534 1535 1538 1540 1541 1542 1543 1544 1545 1545 1546 1547 1548 1548 1549 1550
1480 1483 1485 1488 1490 1492 1494 1496 1498 1501 1503 1505 1506 1508 1509 1510 1512 1514 1515 1517 1519 1520 1521 1523 1525 1528 1530 1532 1534 1535 1536 1537 1538 1539 1540 1541 1542 1543 1544 1545 1545 1546
1477 1479 1482 1484 1486 1488 1491 1493 1495 1497 1499 1501 1503 1504 1505 1507 1509 1510 1512 1513 1515 1516 1517 1519 1521 1524 1526 1528 1529 1531 1532 1533 1534 1535 1536 1537 1538 1539 1540 1541 1541 1542
1474 1476 1479 1481 1483 1485 1488 1490 1492 1494 1496 1498 1499 1501 1502 1504 1506 1507 1508 1509 1511 1512 1514 1515 1517 1519 1522 1523 1525 1527 1528 1529 1530 1531 1531 1532 1534 1535 1535 1536 1537 1538
1471 1473 1476 1478 1480 1482 1485 1487 1489 1491 1493 1494 1496 1498 1499 1501 1502 1503 1504 1506 1508 1509 1510 1512 1513 1515 1517 1519 1521 1522 1524 1525 1526 1526 1526 1528 1530 1530 1531 1532 1533 1534